GLENN Weather Reports


Display with metric or nautical units.
time (UTC)temp
F
wind
direction
speed
MPH
gust
MPH
rain 1hr
in
rain 24hr
in
rain mn
in
humidity
%
barometer
mb
20260510094537 47 117 2.0 3.0 0.00 0.00 0.00 51 1021.8
20260510093022 46 137 2.0 3.0 0.00 0.00 0.00 54 1021.8
20260510091526 46 136 1.0 2.0 0.00 0.00 0.00 53 1021.8
20260510090024 47 114 2.0 4.0 0.00 0.00 0.00 53 1021.8
20260510084516 46 117 2.0 3.0 0.00 0.00 0.00 55 1021.8
20260510083028 46 145 1.0 4.0 0.00 0.00 0.00 56 1021.9
20260510081534 46 114 2.0 3.0 0.00 0.00 0.00 56 1021.9
20260510080032 46 116 0.0 0.0 0.00 0.00 0.00 56 1021.8
20260510074529 46 116 0.0 0.0 0.00 0.00 0.00 56 1021.7
20260510073018 45 113 0.0 0.0 0.00 0.00 0.00 57 1021.7
20260510071524 46 205 0.0 0.0 0.00 0.00 0.00 56 1021.6
20260510070032 47 287 0.0 0.0 0.00 0.00 0.00 53 1021.5
20260510064525 49 306 0.0 0.0 0.00 0.00 0.00 50 1021.4
20260510063029 51 112 0.0 0.0 0.00 0.00 0.00 46 1021.3
20260510061526 51 46 0.0 6.0 0.00 0.00 0.00 46 1021.2
20260510060006 51 109 4.0 7.0 0.00 0.00 0.00 45 1021.2
20260510054535 52 109 6.0 8.0 0.00 0.00 0.00 45 1021.0
20260510053014 51 110 6.0 7.0 0.00 0.00 0.00 45 1021.1
20260510051529 52 116 6.0 7.0 0.00 0.00 0.00 45 1021.1
20260510050026 52 107 6.0 8.0 0.00 0.00 0.00 45 1021.2
20260510044523 52 104 6.0 8.0 0.00 0.00 0.00 45 1021.0
20260510043020 52 108 6.0 7.0 0.00 0.00 0.00 45 1021.0
20260510041516 52 106 6.0 8.0 0.00 0.00 0.00 45 1020.8
20260510040023 52 114 6.0 9.0 0.00 0.00 0.00 45 1020.7
20260510034522 52 116 6.0 8.0 0.00 0.00 0.00 45 1020.6
20260510033010 52 110 6.0 8.0 0.00 0.00 0.00 45 1020.4
20260510031512 52 103 5.0 7.0 0.00 0.00 0.00 45 1020.1
20260510030020 53 107 5.0 7.0 0.00 0.00 0.00 45 1020.1
20260510024520 54 103 3.0 4.0 0.00 0.00 0.00 43 1020.0
20260510023026 58 106 1.0 2.0 0.00 0.00 0.00 37 1019.9
20260510021516 59 84 1.0 2.0 0.00 0.00 0.00 34 1019.8
20260510020016 59 80 1.0 2.0 0.00 0.00 0.00 36 1019.8
20260510014521 60 73 0.0 2.0 0.00 0.00 0.00 33 1019.8
20260510013024 61 77 1.0 2.0 0.00 0.00 0.00 34 1019.7
20260510011529 61 66 0.0 2.0 0.00 0.00 0.00 35 1019.6
20260510010016 61 16 0.0 2.0 0.00 0.00 0.00 37 1019.8
20260510004520 63 348 2.0 5.0 0.00 0.00 0.00 33 1019.9
20260510003024 62 93 1.0 4.0 0.00 0.00 0.00 32 1020.0
20260510001529 63 331 2.0 4.0 0.00 0.00 0.00 33 1019.8
20260510000027 63 317 2.0 4.0 0.00 0.00 0.00 31 1019.6
20260509234520 62 347 4.0 8.0 0.00 0.00 0.00 31 1019.7
20260509233019 63 315 2.0 6.0 0.00 0.00 0.00 31 1019.7
20260509231526 62 269 4.0 7.0 0.00 0.00 0.00 32 1019.6
20260509230027 62 72 1.0 9.0 0.00 0.00 0.00 30 1019.7
20260509224528 62 326 3.0 8.0 0.00 0.00 0.00 31 1019.8
20260509223020 62 75 2.0 8.0 0.00 0.00 0.00 32 1019.8
20260509221529 61 360 4.0 8.0 0.00 0.00 0.00 36 1019.9
20260509220025 61 59 2.0 4.0 0.00 0.00 0.00 34 1020.0
20260509214526 61 347 2.0 5.0 0.00 0.00 0.00 39 1020.0
20260509213028 61 317 3.0 12.0 0.00 0.00 0.00 37 1020.1
20260509211509 62 352 3.0 5.0 0.00 0.00 0.00 35 1020.0
20260509210005 62 360 3.0 9.0 0.00 0.00 0.00 38 1019.9
20260509204505 61 346 6.0 13.0 0.00 0.00 0.00 38 1019.7
20260509203008 61 338 1.0 9.0 0.00 0.00 0.00 33 1019.9
20260509201503 61 325 2.0 5.0 0.00 0.00 0.00 32 1019.8
20260509200004 60 308 3.0 10.0 0.00 0.00 0.00 33 1019.8
20260509194504 60 260 3.0 11.0 0.00 0.00 0.00 35 1020.0
20260509193006 60 286 7.0 11.0 0.00 0.00 0.00 36 1020.0
20260509191503 58 111 1.0 7.0 0.00 0.00 0.00 40 1020.0
20260509190002 57 311 5.0 9.0 0.00 0.00 0.00 37 1020.1
20260509184511 58 290 7.0 11.0 0.00 0.00 0.00 38 1020.0
20260509183003 59 268 4.0 11.0 0.00 0.00 0.00 38 1020.0
20260509181507 57 261 2.0 8.0 0.00 0.00 0.00 34 1020.0
20260509180003 57 305 0.0 3.0 0.00 0.00 0.00 41 1020.1
20260509174509 57 52 3.0 10.0 0.00 0.00 0.00 40 1020.1
20260509173026 56 296 2.0 13.0 0.00 0.00 0.00 38 1020.1
20260509171518 55 316 4.0 12.0 0.00 0.00 0.00 39 1020.1
20260509170013 56 284 5.0 12.0 0.00 0.00 0.00 37 1020.0
20260509164506 55 296 2.0 11.0 0.00 0.00 0.00 37 1020.1
20260509163016 55 286 1.0 12.0 0.00 0.00 0.00 43 1020.1
20260509161508 54 303 4.0 12.0 0.00 0.00 0.00 41 1020.1
20260509160011 54 319 3.0 6.0 0.00 0.00 0.00 39 1020.0
20260509154511 54 346 1.0 7.0 0.00 0.00 0.00 44 1020.0
20260509153009 52 294 2.0 4.0 0.00 0.00 0.00 44 1020.0
20260509151508 50 302 2.0 3.0 0.00 0.00 0.00 48 1019.9
20260509150012 49 352 1.0 2.0 0.00 0.00 0.00 48 1019.8
20260509144510 48 294 1.0 2.0 0.00 0.00 0.00 52 1019.8
20260509143016 48 240 0.0 3.0 0.00 0.00 0.00 55 1019.6
20260509141507 47 248 1.0 3.0 0.00 0.00 0.00 53 1019.5
20260509140015 48 215 2.0 3.0 0.00 0.00 0.00 50 1019.4
20260509134512 49 227 0.0 0.0 0.00 0.00 0.00 50 1019.3
20260509133014 46 116 2.0 3.0 0.00 0.00 0.00 54 1019.3
20260509131514 41 108 3.0 4.0 0.00 0.00 0.00 59 1019.2
20260509130039 40 116 3.0 4.0 0.00 0.00 0.00 62 1019.0
20260509124529 42 153 4.0 6.0 0.00 0.00 0.00 58 1018.8
20260509123016 44 107 1.0 3.0 0.00 0.00 0.00 55 1018.4
20260509121506 44 352 0.0 2.0 0.00 0.00 0.00 53 1018.4
20260509120013 44 36 1.0 3.0 0.00 0.00 0.00 56 1018.2
20260509114518 43 108 2.0 3.0 0.00 0.00 0.00 62 1018.1
20260509113018 44 112 1.0 2.0 0.00 0.00 0.00 62 1018.0
20260509111518 42 161 0.0 5.0 0.00 0.00 0.00 67 1017.8
20260509110009 41 113 3.0 6.0 0.00 0.00 0.00 70 1017.7
20260509104508 43 150 2.0 4.0 0.00 0.00 0.00 60 1017.6
20260509103014 45 5 0.0 0.0 0.00 0.00 0.00 53 1017.5
20260509101529 43 105 0.0 0.0 0.00 0.00 0.00 57 1017.3
20260509100020 43 117 0.0 0.0 0.00 0.00 0.00 62 1017.2